Tracking 19817 objects as of 20-Aug-2019
HD Live streaming from Space Station
objects crossing your sky now

COSMOS 1249 FUEL CORE

Track COSMOS 1249 FUEL CORE now!
10-day predictions


NORAD ID: 12551
Int'l Code: 1981-021C
Perigee: 891.5 km
Apogee: 976.6 km
Inclination: 65.0 °
Period: 103.6 minutes
Semi major axis: 7305 km
RCS: 0.1622 m2 (medium)
Launch date: March 5, 1981
Source: Commonwealth of Independent States (former USSR) (CIS)
Launch site: TYURATAM MISSILE AND SPACE COMPLEX (TTMTR)

Note: This is SATELLITE DEBRIS
aabbcc
Your satellite tracking list
Your tracking list is empty




NASA's NSSDC Master Catalog

Two Line Element Set (TLE):
1 12551U 81021C   19232.20517273 -.00000086  00000-0  37805-5 0  9993
2 12551  64.9643 268.1501 0058263 291.1979  68.2865 13.90489051955096
Source of the keplerian elements: AFSPC